GW6496 Weather Reports


time (UTC)temp
C
wind
direction
speed
KPH
gust
KPH
rain 1hr
cm
rain 24hr
cm
rain mn
cm
humidity
%
barometer
mb
20260509102032 14 86 0.0 1.6 0.00 0.00 0.00 94 1012.1
20260509101529 14 106 3.2 3.2 0.00 0.00 0.00 94 1012.3
20260509101026 14 95 1.6 3.2 0.00 0.00 0.00 94 1012.5
20260509100523 14 94 3.2 3.2 0.00 0.00 0.00 94 1012.8
20260509100020 14 88 1.6 3.2 0.00 0.00 0.00 94 1012.6
20260509095517 14 89 0.0 1.6 0.00 0.00 0.00 94 1012.6
20260509095014 14 96 3.2 3.2 0.00 0.00 0.00 94 1012.6
20260509094510 14 93 1.6 3.2 0.00 0.00 0.00 94 1012.7
20260509094007 14 105 3.2 3.2 0.00 0.00 0.00 94 1012.6
20260509093506 14 108 1.6 3.2 0.00 0.00 0.00 94 1012.8
20260509093003 15 111 3.2 3.2 0.00 0.00 0.00 94 1012.5
20260509092500 15 112 3.2 3.2 0.00 0.00 0.00 94 1012.6
20260509091959 15 93 1.6 3.2 0.00 0.00 0.00 94 1012.6
20260509091456 15 107 1.6 3.2 0.00 0.00 0.00 94 1012.4
20260509090952 15 119 3.2 3.2 0.00 0.00 0.00 94 1012.7
20260509090450 14 60 1.6 3.2 0.00 0.00 0.00 94 1012.6
20260509085947 14 46 1.6 3.2 0.00 0.00 0.00 95 1012.5
20260509085444 14 98 1.6 3.2 0.00 0.00 0.00 95 1012.5
20260509084941 14 97 3.2 3.2 0.00 0.00 0.00 95 1012.5
20260509084437 14 101 3.2 3.2 0.00 0.00 0.00 95 1012.5
20260509083935 14 69 0.0 1.6 0.00 0.00 0.00 95 1012.4
20260509083432 14 103 3.2 3.2 0.00 0.00 0.00 95 1012.3
20260509082929 14 103 0.0 3.2 0.00 0.00 0.00 95 1012.3
20260509082426 14 44 0.0 1.6 0.00 0.00 0.00 95 1012.5
20260509081923 14 34 1.6 1.6 0.00 0.00 0.00 95 1012.5
20260509081420 13 99 3.2 3.2 0.00 0.00 0.00 95 1012.4
20260509080917 13 99 1.6 1.6 0.00 0.00 0.00 95 1012.5
20260509080415 13 116 1.6 3.2 0.00 0.00 0.00 95 1012.4
20260509075913 13 63 1.6 3.2 0.00 0.00 0.00 95 1012.3
20260509075410 13 101 1.6 3.2 0.00 0.00 0.00 96 1012.1
20260509074908 13 104 1.6 3.2 0.00 0.00 0.00 96 1012.4
20260509074405 13 48 0.0 3.2 0.00 0.00 0.00 96 1012.2
20260509073901 13 50 0.0 3.2 0.00 0.00 0.00 96 1012.0
20260509073358 13 71 0.0 1.6 0.00 0.00 0.00 96 1012.2
20260509072854 13 36 1.6 3.2 0.00 0.00 0.00 96 1012.3
20260509072351 13 46 1.6 3.2 0.00 0.00 0.00 95 1012.1
20260509071847 13 33 3.2 3.2 0.00 0.00 0.00 95 1012.1
20260509071344 13 39 3.2 3.2 0.00 0.00 0.00 95 1011.9
20260509070842 13 63 3.2 3.2 0.00 0.00 0.00 95 1012.1
20260509070338 13 89 0.0 3.2 0.00 0.00 0.00 95 1012.2
20260509065835 13 107 0.0 3.2 0.00 0.00 0.00 95 1012.3
20260509065331 13 84 1.6 3.2 0.00 0.00 0.00 95 1012.5
20260509064827 13 108 1.6 3.2 0.00 0.00 0.00 95 1012.6
20260509064325 13 78 3.2 3.2 0.00 0.00 0.00 95 1012.9
20260509063822 13 108 1.6 3.2 0.00 0.00 0.00 95 1012.8
20260509063318 13 92 3.2 3.2 0.00 0.00 0.00 95 1013.1
20260509062816 13 102 3.2 3.2 0.00 0.00 0.00 95 1013.0
20260509062313 13 109 3.2 3.2 0.00 0.00 0.00 95 1013.4
20260509061810 13 105 3.2 3.2 0.00 0.00 0.00 95 1013.6
20260509061308 13 109 0.0 3.2 0.00 0.00 0.00 95 1013.6
20260509060804 13 80 1.6 1.6 0.00 0.00 0.00 95 1013.8
20260509060301 13 50 0.0 1.6 0.00 0.00 0.00 95 1013.7
20260509055756 13 66 0.0 1.6 0.00 0.00 0.00 95 1013.9
20260509055252 13 54 1.6 1.6 0.00 0.00 0.00 95 1013.8
20260509054749 13 52 1.6 1.6 0.00 0.00 0.00 95 1013.7
20260509054246 13 64 0.0 3.2 0.00 0.00 0.00 95 1013.9
20260509053745 13 96 1.6 3.2 0.00 0.00 0.00 95 1013.7
20260509053241 13 73 1.6 3.2 0.00 0.00 0.00 95 1014.0
20260509052739 13 85 1.6 3.2 0.00 0.00 0.00 94 1013.8
20260509052237 13 105 3.2 3.2 0.00 0.00 0.00 94 1013.6
20260509051734 13 81 0.0 1.6 0.00 0.00 0.00 94 1013.8
20260509051232 13 82 1.6 1.6 0.00 0.00 0.00 94 1013.8
20260509050729 13 100 1.6 3.2 0.00 0.00 0.00 94 1013.7
20260509050225 13 89 0.0 1.6 0.00 0.00 0.00 94 1013.8
20260509045722 13 93 3.2 3.2 0.00 0.00 0.00 94 1013.8
20260509045219 13 52 1.6 3.2 0.00 0.00 0.00 94 1013.8
20260509044716 13 52 1.6 3.2 0.00 0.00 0.00 93 1013.7
20260509044214 13 86 1.6 3.2 0.00 0.00 0.00 93 1013.9
20260509043710 13 53 0.0 1.6 0.00 0.00 0.00 93 1014.0
20260509043206 13 57 3.2 3.2 0.00 0.00 0.00 93 1014.0
20260509042703 13 74 1.6 3.2 0.00 0.00 0.00 92 1014.0
20260509042159 13 83 1.6 3.2 0.00 0.00 0.00 92 1013.9
20260509041655 14 107 3.2 3.2 0.00 0.00 0.00 92 1014.0
20260509041153 14 40 1.6 3.2 0.00 0.00 0.00 92 1014.1
20260509040651 14 62 3.2 3.2 0.00 0.00 0.00 91 1014.2
20260509040148 14 29 3.2 3.2 0.00 0.00 0.00 91 1014.4
20260509035645 14 35 0.0 3.2 0.00 0.00 0.00 91 1014.1
20260509035141 14 47 3.2 3.2 0.00 0.00 0.00 91 1014.4
20260509034639 14 40 3.2 3.2 0.00 0.00 0.00 90 1014.3
20260509034136 14 62 1.6 3.2 0.00 0.00 0.00 90 1014.5
20260509033633 15 69 0.0 3.2 0.00 0.00 0.00 89 1014.6
20260509033130 15 103 1.6 3.2 0.00 0.00 0.00 89 1014.8
20260509032627 15 47 0.0 3.2 0.00 0.00 0.00 88 1014.9
20260509032124 15 36 1.6 3.2 0.00 0.00 0.00 88 1014.8
20260509031622 15 37 1.6 3.2 0.00 0.00 0.00 88 1014.8
20260509031119 15 74 1.6 3.2 0.00 0.00 0.00 87 1014.9
20260509030617 15 38 1.6 3.2 0.00 0.00 0.00 87 1014.8
20260509030114 15 60 1.6 3.2 0.00 0.00 0.00 86 1014.9
20260509025610 15 26 1.6 3.2 0.00 0.00 0.00 86 1014.8
20260509025106 15 89 0.0 1.6 0.00 0.00 0.00 86 1014.8
20260509024602 15 78 1.6 1.6 0.00 0.00 0.00 86 1015.0
20260509024058 15 93 1.6 3.2 0.00 0.00 0.00 85 1014.9
20260509023556 15 89 1.6 3.2 0.00 0.00 0.00 85 1015.1
20260509023052 15 97 0.0 3.2 0.00 0.00 0.00 84 1014.9
20260509022548 15 65 0.0 3.2 0.00 0.00 0.00 84 1014.9
20260509022047 15 31 1.6 3.2 0.00 0.00 0.00 84 1014.9
20260509021543 16 84 1.6 3.2 0.00 0.00 0.00 85 1014.7
20260509021040 16 78 1.6 3.2 0.00 0.00 0.00 84 1014.7
20260509020539 16 68 1.6 3.2 0.00 0.00 0.00 83 1014.9
20260509020035 16 50 0.0 3.2 0.00 0.00 0.00 83 1014.9
20260509015534 16 39 1.6 3.2 0.00 0.00 0.00 84 1014.7
20260509015031 16 32 0.0 3.2 0.00 0.00 0.00 84 1014.6
20260509014528 16 53 3.2 3.2 0.00 0.00 0.00 84 1014.6
20260509014024 16 93 0.0 3.2 0.00 0.00 0.00 83 1014.7
20260509013521 16 89 0.0 1.6 0.00 0.00 0.00 83 1014.4
20260509013016 16 77 1.6 1.6 0.00 0.00 0.00 84 1014.5
20260509012514 16 43 1.6 3.2 0.00 0.00 0.00 84 1014.5
20260509012010 16 82 1.6 3.2 0.00 0.00 0.00 85 1014.5
20260509011508 16 93 1.6 3.2 0.00 0.00 0.00 83 1014.6
20260509011005 16 33 1.6 3.2 0.00 0.00 0.00 82 1014.5
20260509010503 16 19 1.6 3.2 0.00 0.00 0.00 85 1014.5
20260509005959 16 92 1.6 3.2 0.00 0.00 0.00 84 1014.4
20260509005458 16 102 1.6 3.2 0.00 0.00 0.00 82 1014.3
20260509004957 16 77 0.0 3.2 0.00 0.00 0.00 82 1014.2
20260509004455 16 87 1.6 1.6 0.00 0.00 0.00 81 1014.3
20260509003952 16 94 1.6 3.2 0.00 0.00 0.00 81 1014.3
20260509003450 16 37 1.6 3.2 0.00 0.00 0.00 82 1014.5
20260509002947 16 21 1.6 3.2 0.00 0.00 0.00 82 1014.2
20260509002445 16 89 1.6 1.6 0.00 0.00 0.00 81 1014.3
20260509001942 16 86 0.0 1.6 0.00 0.00 0.00 81 1014.3
20260509001438 16 93 1.6 3.2 0.00 0.00 0.00 81 1014.5
20260509000935 16 82 3.2 4.8 0.00 0.00 0.00 81 1014.3
20260509000433 17 89 0.0 1.6 0.00 0.00 0.00 82 1014.2
20260508235928 17 96 1.6 3.2 0.00 0.00 0.00 84 1014.2
20260508235426 17 44 3.2 3.2 0.00 0.00 0.00 81 1014.4
20260508234923 17 36 0.0 1.6 0.00 0.00 0.00 81 1014.3
20260508234420 17 98 1.6 3.2 0.00 0.00 0.00 81 1014.3
20260508233918 17 5 0.0 3.2 0.00 0.00 0.00 81 1014.2
20260508233417 17 62 3.2 3.2 0.00 0.00 0.00 81 1014.3
20260508232913 17 109 1.6 3.2 0.00 0.00 0.00 80 1014.4
20260508232410 17 33 1.6 3.2 0.00 0.00 0.00 80 1014.2
20260508231908 17 86 1.6 3.2 0.00 0.00 0.00 79 1014.0
20260508231404 18 67 1.6 3.2 0.00 0.00 0.00 80 1014.1
20260508230901 18 33 1.6 3.2 0.00 0.00 0.00 78 1014.1
20260508230358 18 48 1.6 1.6 0.00 0.00 0.00 78 1014.0
20260508225855 18 94 0.0 3.2 0.00 0.00 0.00 78 1014.0
20260508225351 18 43 1.6 3.2 0.00 0.00 0.00 77 1014.3
20260508224850 18 20 1.6 3.2 0.00 0.00 0.00 77 1014.2
20260508224347 18 26 1.6 3.2 0.00 0.00 0.00 76 1014.3
20260508223844 18 31 1.6 3.2 0.00 0.00 0.00 76 1014.1
20260508223341 18 5 0.0 3.2 0.00 0.00 0.00 76 1014.2
20260508222839 18 9 1.6 1.6 0.00 0.00 0.00 74 1014.2
20260508222336 18 92 1.6 3.2 0.00 0.00 0.00 74 1014.1
20260508221833 18 55 0.0 3.2 0.00 0.00 0.00 73 1014.2
20260508221328 18 67 0.0 3.2 0.00 0.00 0.00 74 1014.2
20260508220825 18 10 3.2 3.2 0.00 0.00 0.00 72 1014.1
20260508220321 18 98 1.6 3.2 0.00 0.00 0.00 76 1014.3
20260508215818 18 23 1.6 3.2 0.00 0.00 0.00 70 1014.6
20260508215314 19 87 1.6 3.2 0.00 0.00 0.00 69 1014.2
20260508214812 19 42 1.6 3.2 0.00 0.00 0.00 68 1014.3
20260508214309 19 11 3.2 3.2 0.00 0.00 0.00 66 1014.4
20260508213805 19 11 1.6 3.2 0.00 0.00 0.00 66 1014.2
20260508213302 19 11 1.6 3.2 0.00 0.00 0.00 67 1014.1
20260508212758 20 1 1.6 3.2 0.00 0.00 0.00 68 1014.2
20260508212254 20 71 3.2 3.2 0.00 0.00 0.00 67 1014.3
20260508211750 20 29 3.2 3.2 0.00 0.00 0.00 67 1014.5
20260508211246 20 46 3.2 3.2 0.00 0.00 0.00 62 1014.2
20260508210744 19 103 0.0 3.2 0.00 0.00 0.00 67 1014.4
20260508210241 19 81 1.6 3.2 0.00 0.00 0.00 67 1014.3
20260508205738 19 5 3.2 3.2 0.00 0.00 0.00 66 1014.3
20260508205234 20 16 3.2 3.2 0.00 0.00 0.00 62 1014.3
20260508204730 20 11 3.2 3.2 0.00 0.00 0.00 60 1014.3
20260508204227 20 359 1.6 3.2 0.00 0.00 0.00 66 1014.3
20260508203723 20 15 3.2 3.2 0.00 0.00 0.00 61 1014.5
20260508203219 20 62 1.6 3.2 0.00 0.00 0.00 59 1014.6
20260508202715 20 4 1.6 3.2 0.00 0.00 0.00 60 1014.5
20260508202213 20 92 1.6 3.2 0.00 0.00 0.00 54 1014.5
20260508201709 20 170 0.0 0.0 0.00 0.00 0.00 52 1014.4
20260508201206 20 89 0.0 3.2 0.00 0.00 0.00 55 1014.4
20260508200703 20 89 0.0 3.2 0.00 0.00 0.00 54 1014.4
20260508200159 20 89 3.2 3.2 0.00 0.00 0.00 59 1014.5
20260508195656 21 72 0.0 3.2 0.00 0.00 0.00 55 1014.7
20260508195152 21 52 1.6 3.2 0.00 0.00 0.00 51 1014.6
20260508194649 21 102 3.2 3.2 0.00 0.00 0.00 59 1014.7
20260508194146 21 89 0.0 4.8 0.00 0.00 0.00 53 1015.0
20260508193643 21 342 0.0 4.8 0.00 0.00 0.00 52 1014.9
20260508193139 21 55 3.2 3.2 0.00 0.00 0.00 53 1014.9
20260508192636 21 17 1.6 4.8 0.00 0.00 0.00 56 1015.0
20260508192134 21 66 0.0 3.2 0.00 0.00 0.00 52 1015.2
20260508191630 21 51 1.6 3.2 0.00 0.00 0.00 53 1015.6
20260508191127 21 97 3.2 3.2 0.00 0.00 0.00 50 1015.6
20260508190625 21 66 0.0 3.2 0.00 0.00 0.00 51 1015.5
20260508190121 21 63 3.2 4.8 0.00 0.00 0.00 53 1015.5
20260508185618 21 197 0.0 4.8 0.00 0.00 0.00 49 1015.4
20260508185115 21 103 3.2 6.4 0.00 0.00 0.00 51 1015.7
20260508184612 21 256 0.0 6.4 0.00 0.00 0.00 49 1015.7
20260508184109 21 125 6.4 8.0 0.00 0.00 0.00 48 1015.7
20260508183606 21 98 3.2 4.8 0.00 0.00 0.00 52 1015.8
20260508183102 21 100 4.8 4.8 0.00 0.00 0.00 54 1015.8
20260508182558 21 132 1.6 6.4 0.00 0.00 0.00 49 1016.0
20260508182055 21 233 4.8 6.4 0.00 0.00 0.00 48 1015.8
20260508181549 21 102 1.6 4.8 0.00 0.00 0.00 49 1015.8
20260508181048 21 123 0.0 6.4 0.00 0.00 0.00 47 1016.0
20260508180544 21 102 1.6 4.8 0.00 0.00 0.00 51 1016.1
20260508180040 21 97 3.2 4.8 0.00 0.00 0.00 48 1016.0
20260508175537 22 108 4.8 6.4 0.00 0.00 0.00 48 1016.1
20260508175034 22 45 3.2 4.8 0.00 0.00 0.00 48 1016.2
20260508174532 22 226 3.2 6.4 0.00 0.00 0.00 46 1016.1
20260508174028 21 106 1.6 3.2 0.00 0.00 0.00 50 1016.3
20260508173525 21 225 3.2 6.4 0.00 0.00 0.00 48 1016.1
20260508173021 21 255 8.0 8.0 0.00 0.00 0.00 48 1016.5
20260508172519 21 353 0.0 4.8 0.00 0.00 0.00 50 1016.4
20260508172015 21 151 6.4 8.0 0.00 0.00 0.00 46 1016.7
20260508171512 21 274 1.6 6.4 0.00 0.00 0.00 43 1016.9
20260508171008 21 237 3.2 6.4 0.00 0.00 0.00 50 1016.9
20260508170506 21 89 0.0 6.4 0.00 0.00 0.00 53 1016.7
20260508170002 21 122 0.0 8.0 0.00 0.00 0.00 54 1016.7
20260508165500 20 304 3.2 4.8 0.00 0.00 0.00 51 1017.1
20260508164956 20 120 3.2 4.8 0.00 0.00 0.00 54 1017.2
20260508164453 20 110 3.2 6.4 0.00 0.00 0.00 54 1017.3
20260508163950 20 6 4.8 8.0 0.00 0.00 0.00 53 1017.2
20260508163448 20 91 4.8 4.8 0.00 0.00 0.00 57 1017.3
20260508162943 20 78 3.2 6.4 0.00 0.00 0.00 53 1017.3
20260508162441 20 283 1.6 4.8 0.00 0.00 0.00 55 1017.6
20260508161938 20 88 6.4 6.4 0.00 0.00 0.00 56 1017.7
20260508161435 20 57 6.4 6.4 0.00 0.00 0.00 54 1017.9
20260508160932 20 62 3.2 6.4 0.00 0.00 0.00 55 1017.7
20260508160431 20 97 3.2 4.8 0.00 0.00 0.00 53 1017.9
20260508155926 20 332 3.2 6.4 0.00 0.00 0.00 53 1017.9
20260508155424 20 25 6.4 6.4 0.00 0.00 0.00 53 1018.0
20260508154921 20 100 0.0 4.8 0.00 0.00 0.00 54 1018.3
20260508154418 20 5 9.7 9.7 0.00 0.00 0.00 55 1018.2
20260508153915 20 19 3.2 4.8 0.00 0.00 0.00 56 1018.2
20260508153412 18 203 6.4 6.4 0.00 0.00 0.00 56 1018.3
20260508152908 18 84 3.2 4.8 0.00 0.00 0.00 58 1018.1
20260508152405 19 94 4.8 6.4 0.00 0.00 0.00 57 1018.2
20260508151901 18 120 1.6 4.8 0.00 0.00 0.00 61 1018.4
20260508151358 18 196 4.8 4.8 0.00 0.00 0.00 60 1018.4
20260508150854 18 105 4.8 9.7 0.00 0.00 0.00 63 1018.3
20260508150351 18 35 6.4 6.4 0.00 0.00 0.00 63 1018.4
20260508145847 18 295 1.6 4.8 0.00 0.00 0.00 60 1018.5
20260508145343 17 352 4.8 6.4 0.00 0.00 0.00 62 1018.5
20260508144840 17 110 1.6 4.8 0.00 0.00 0.00 64 1018.4
20260508144339 17 38 3.2 3.2 0.00 0.00 0.00 63 1018.4
20260508143836 17 131 0.0 3.2 0.00 0.00 0.00 62 1018.2
20260508143332 17 130 4.8 4.8 0.00 0.00 0.00 64 1018.4
20260508142829 17 290 3.2 4.8 0.00 0.00 0.00 67 1018.3
20260508142326 16 17 3.2 6.4 0.00 0.00 0.00 67 1018.3
20260508141823 16 48 4.8 4.8 0.00 0.00 0.00 70 1018.2
20260508141320 16 169 3.2 6.4 0.00 0.00 0.00 70 1018.4
20260508140817 16 139 8.0 8.0 0.00 0.00 0.00 68 1018.4
20260508140314 16 122 3.2 4.8 0.00 0.00 0.00 70 1018.2
20260508135810 15 101 3.2 4.8 0.00 0.00 0.00 71 1018.3
20260508135306 15 46 3.2 4.8 0.00 0.00 0.00 73 1018.4
20260508134801 15 4 3.2 6.4 0.00 0.00 0.00 73 1018.4
20260508134259 15 140 6.4 6.4 0.00 0.00 0.00 76 1018.6
20260508133756 15 88 1.6 3.2 0.00 0.00 0.00 80 1018.6
20260508133253 15 163 0.0 6.4 0.00 0.00 0.00 76 1018.6
20260508132751 15 350 3.2 4.8 0.00 0.00 0.00 80 1018.6
20260508132248 14 168 0.0 9.7 0.00 0.00 0.00 80 1018.5
20260508131744 14 110 1.6 3.2 0.00 0.00 0.00 85 1018.6
20260508131240 13 168 1.6 3.2 0.00 0.00 0.00 86 1018.4
20260508130737 13 65 0.0 3.2 0.00 0.00 0.00 89 1018.3
20260508130234 12 106 3.2 3.2 0.00 0.00 0.00 92 1018.3
20260508125730 12 65 0.0 1.6 0.00 0.00 0.00 94 1018.2
20260508125226 12 84 3.2 3.2 0.00 0.00 0.00 95 1018.4
20260508124725 11 92 3.2 3.2 0.00 0.00 0.00 95 1018.2
20260508124222 11 98 3.2 3.2 0.00 0.00 0.00 95 1018.3
20260508123720 11 100 3.2 3.2 0.00 0.00 0.00 96 1018.3
20260508123218 11 107 3.2 3.2 0.00 0.00 0.00 96 1018.3
20260508122713 10 101 3.2 3.2 0.00 0.00 0.00 96 1018.1
20260508122210 10 105 3.2 4.8 0.00 0.00 0.00 97 1018.0
20260508121708 10 99 3.2 4.8 0.00 0.00 0.00 97 1018.0
20260508121207 10 84 3.2 3.2 0.00 0.00 0.00 97 1017.7
20260508120703 10 108 3.2 4.8 0.00 0.00 0.00 98 1017.8
20260508120201 10 94 3.2 4.8 0.00 0.00 0.00 98 1017.7
20260508115659 10 78 1.6 3.2 0.00 0.00 0.00 98 1017.2
20260508115155 10 59 1.6 3.2 0.00 0.00 0.00 98 1017.4
20260508114652 10 84 1.6 3.2 0.00 0.00 0.00 98 1017.2
20260508114149 10 135 4.8 4.8 0.00 0.00 0.00 98 1017.0
20260508113646 10 103 1.6 3.2 0.00 0.00 0.00 98 1017.0
20260508113144 9 45 3.2 3.2 0.00 0.00 0.00 97 1017.2
20260508112640 9 112 1.6 3.2 0.00 0.00 0.00 97 1017.0
20260508112137 9 111 3.2 3.2 0.00 0.00 0.00 97 1017.1
20260508111633 9 82 1.6 3.2 0.00 0.00 0.00 97 1016.9
20260508111131 9 72 3.2 4.8 0.00 0.00 0.00 97 1016.7
20260508110629 9 56 3.2 3.2 0.00 0.00 0.00 97 1016.9
20260508110125 9 36 3.2 4.8 0.00 0.00 0.00 97 1016.4
20260508105620 9 73 3.2 3.2 0.00 0.00 0.00 97 1016.5
20260508105117 9 84 0.0 3.2 0.00 0.00 0.00 97 1016.3
20260508104615 9 87 1.6 3.2 0.00 0.00 0.00 97 1016.4
20260508104111 9 92 3.2 3.2 0.00 0.00 0.00 97 1016.2
20260508103609 9 88 3.2 4.8 0.00 0.00 0.00 97 1016.0
20260508103106 9 71 3.2 4.8 0.00 0.00 0.00 97 1015.9
20260508102603 9 40 3.2 4.8 0.00 0.00 0.00 97 1015.7